Location: Nelson
(41.2830°S, 173.2830°E)
Time: 06:02:00
(UTC+12:00)

Cosmos 2360 Rocket - Pass Details

Date: 14 May 2021
Orbit: 835 x 844 km, 71.0° (Epoch: 16 June)

Event Time Altitude Azimuth Distance (km) Brightness Sun altitude
Rises 17:43:46 0° 312° (NW) 3,382 6.9 -5.1°
Reaches altitude 10° 17:46:24 10° 303° (WNW) 2,455 6.3 -5.6°
Maximum altitude 17:51:31 35° 238° (WSW) 1,345 3.7 -6.5°
Drops below altitude 10° 17:56:42 10° 172° (S) 2,482 4.4 -7.4°
Sets 17:59:24 0° 163° (SSE) 3,424 5.0 -7.9°
